Погода в Таре

Погода в Таре : погода сейчас, прогноз погоды и архив. Всё, что Вы хотите узнать о погоде в Таре!

Хотите узнать прогноз погоды в Таре? Тогда Вам сюда: Погода в Таре

Поиск расширенной информации на нашем сайте:

Полезная информация: провода для активного сабвуфера

Другие новости

Новости СМИ2

Главная страница сайта

Новости сайта

02.10.2013

Напоминаем, что на нашем новом сайте вы можете получить высокодетализированные прогнозы погоды по пунктам России, СНГ и мира (включающие важные для авиации метеовеличины, такие как направление и скорость ветра, видимость, явления погоды, количество и форма облачности, нижняя и верхняя граница облачности), а также ознакомиться с разнообразными материалами по авиационной метеорологии и подборкой полезных ссылок на эту тему.

Сайт Метеоцентр.Азия посвящён разработке технологий оптимизации авиаметеорологического обслуживания, включая проектирование и перспективное создание нескольких автоматизированных авиаметеорологических систем:
- система выпуска высокодетальных прогностических карт явлений погоды для нижнего воздушного пространства по России и ближнему зарубежью;
- система верификации прогнозов TAF (выпускаемых синоптиками официальных АМСГ РФ и ближнего зарубежья) и AUTOTAF (выпускаемых сайтом Метеоцентр.Азия) - выявление ошибок, онлайн-сопоставление с фактической погодой METAR, автоматическое внесение коррективов в прогнозы при резком отклонении фактической погоды от прогноза, подсчёт оправдываемости прогнозов по элементам и в целом;
- система обработки, анализа и отображения авиаметеорологической информации для применения провайдерами метеорологической информации.

Рекомендуем: планировка таунхаусов

Погода в Таре - сегодня

Время (UTC), дата Ветер
(°,м/с) 
Видим.   Явления Облачность Т
(°С)
Тd
(°С)
f(%) Тe
(°С)
Pmin
(гПа)
dP
(гПа)
Po
(мм)
O2
(г/м3)
Тmin Tmax R s Состояние
почвы
06 23.02.17 200 (Ю) 20000 м    10/0 верхняя 
[Ci sp]
-0.3 -8.5 54 -3  1020.3  758  307           
09 23.02.17 200 (Ю) 20000 м    10/0 верхняя 
[Ci fib]
+1.4 -6.9 54 -1  1020.6  0.4  759  305           
12 23.02.17 190 (Ю) 20000 м    10/0 верхняя 
[Ci fib]
-0.9 -7.1 63 -3  1021.1  0.4  759  308           
15 23.02.17 180 (Ю) 10 км    10/0 верхняя 
[Ci fib]
-3.8 -9.9 63 -6  1021.9  0.7  759  311    +1.8       
18 23.02.17 140 (ЮВ) 10 км    ясно 
-7.6 -11.6 73 -9  1022.2  0.1  759  316           
21 23.02.17 160 (Ю) 10 км    ясно 
-9.5 -13.1 75 -11  1021.8  -0.4  759  318           
00 24.02.17 150 (ЮВ) 10 км    ясно 
-10.8 -13.2 82 -14  1021.1  -0.7  759  319           
03 24.02.17 150 (ЮВ) 20000 м    1/0 верхняя 
[Ci fib]
-11.1 -13.4 83 -14  1020.9  -0.2  758  320  -11.6      71  неравномерный
сухой снег
100% 
06 24.02.17 150 (ЮВ) 20000 м    3/0 верхняя 
[Ci fib]
-7.2 -12.1 68 -10  1020.1  -0.7  758  315           
09 24.02.17 140 (ЮВ) 20000 м    3/0 верхняя 
[Cc]
-4.4 -11.2 59 -7  1019.8  -0.2  758  311           
12 24.02.17 150 (ЮВ) 20000 м    10/0 верхняя 
[Cc]
-3.9 -11.1 57 -5  1019.5  -0.3  758  311           
15 24.02.17 150 (ЮВ) 10 км    ясно 
-8.7 -14.6 62 -8  1019.1  -0.5  757  316    -3.1       
18 24.02.17 160 (Ю) 10 км    ясно 
-9.6 -14.1 70 -11  1018.9  -0.3  757  317           
21 24.02.17 150 (ЮВ) 10 км    ясно 
-10.8 -14.3 75 -13  1018.8  -0.1  757  319           
00 25.02.17 160 (Ю) 10 км    ясно 
-12.7 -15.4 80 -13  1018.5  -0.4  757  321           
03 25.02.17 150 (ЮВ) 20000 м    8/0 средняя, верхняя 
[Ac lent|Ci fib]
-13.4 -15.7 83 -13  1018.7  0.2  757  322  -13.8      71  неравномерный
сухой снег
100% 
06 25.02.17 150 (ЮВ) 20000 м    4/0 верхняя 
[Cc]
-7.2 -13.7 60 -9  1018.2  -0.3  757  314           
09 25.02.17 180 (Ю) 20000 м    9/0 верхняя 
[Cc]
-3 -11.9 50 -5  1017.3  -0.7  756  309           
12 25.02.17 200 (Ю) 20000 м    10/0 верхняя 
[Cc]
-2.6 -12.3 47 -4  1017.2  -0.1  756  309           
15 25.02.17 160 (Ю) 10 км    10/0 верхняя 
[Ci fib]
-7.3 -12.3 67 -10  1017.8  0.4  756  314    -1.1       
18 25.02.17 170 (Ю) 10 км    10/10 600 м 
[Sc]
-8.7 -12.6 73 -8  1018  0.2  756  316           
21 25.02.17 170 (Ю) 10 км    10/0 верхняя 
[Ci fib]
-11.1 -13.8 80 -13  1018.5  0.3  757  319           
00 26.02.17 140 (ЮВ) 10 км    10/10 210 м 
[St]
-11.2 -13 87 -14  1017.9  -0.6  756  319           
03 26.02.17 160 (Ю) 20000 м  [диам. изморози 2 мм]  10/10 180 м 
[St]
-6.7 -8 90 -8  1017.7  756  313  -11.9      70  неравномерный
сухой снег
100% 
06 26.02.17 150 (ЮВ) 20000 м  в посл. час снег [диам. изморози 2 мм]  10/10 630 м 
[Sc]
-3 -4.4 90 -5  1016.4  -1.1  755  308           
Время (UTC), дата Ветер
(°,м/с) 
Видим.   Явления Облачность Т
(°С)
Тd
(°С)
f(%) Тe
(°С)
Pmin
(гПа)
dP
(гПа)
Po
(мм)
O2
(г/м3)
Тmin Tmax R s Состояние
почвы

Для получения пояснительной информации подведите курсор к названию столбца.

ПОГОДА в Таре - архив

Всё, что Вы хотите узнать о погоде в Таре - удобно и подробно!

Выберите нужную дату (начиная с 1 января 2015* года) и нажмите кнопку "Найти".
Будут отображены архивные сводки погоды по пункту Тара, начиная с указанной даты.


Отображать данные в формате CSV (для использования в таблицах Excel)


Внимание! Наш архив погоды предназначен исключительно для личного некоммерческого использования в познавательных целях. Если Вам необходимы официальные справки о состоянии погоды (для производственных, юридических, коммерческих и т.п. целей), обращайтесь в органы Росгидромета.

*Примечание: данная дата относится к архиву по метеостанциям СССР (Россия, СНГ, Балтия).
Архив по метеостанциям Зарубежной Европы и Азии (кроме Китая) хранится 10 дней, по другим регионам земного шара (Китай, Африка, Америка, Австралия, Океания) - 1 день.

Тара - район местоположения метеостанции


Название, широта, долгота, высота метеостанции:
Тара 56.9°ш. 74.4°д. 73 м над ур. моря [Российская Федерация]

Дополнительная информация

В oтличие oт бoльшинства пoгoдных сайтoв мы публикуем пoдрoбную метеoинфoрмацию в детальнoм прoфессиoнальнoм фoрмате.

Характеристики температуры и влажнoсти вoздуха измеряются на высoте 2 м в тени вдали oт зданий и деревьев.
Скoрoсть ветра измеряется на высoте 10 м (на урoвне рoста челoвека скoрoсть ветра ниже в 1.5-2 раза). Если метеoстанция нахoдится в гoрoде или в лесу, тo скoрoсть ветра занижена на 2-4 м/с пo сравнению с oткрытым местoм. Скoрoсть ветра над акватoриями крупных рек и oзёр, а также на вершинах хoлмoв на 2-5 м/с выше, чем в oбычных услoвиях.
Атмoсфернoе давление в разных тoчках местнoсти мoжет значительнo oтличаться oт давления на метеoстанции, в зависимoсти oт услoвий рельефа (при пoдъёме на 10 м давление пoнижается примернo на 1 мм рт.ст.).